This is the latest recevied weather packets stored in our database for station/object N6RDS-8. If no packets are shown the sender has not sent any weather packets the latest 10 day(s).
| Time | Temp. | Humidity | Pressure | Rain* | Wind** | Luminosity | Snow |
|---|---|---|---|---|---|---|---|
| 1778162550 | 11.67° C | 43% | 1020 hPa | 0 mm | - | 112 W/m² | - |
| 1778162247 | 11.11° C | 45% | 1020.5 hPa | 0 mm | - | 101 W/m² | - |
| 1778161944 | 10.56° C | 46% | 1020.3 hPa | 0 mm | - | 89 W/m² | - |
| 1778161640 | 10° C | 47% | 1020.1 hPa | 0 mm | - | 79 W/m² | - |
| 1778161336 | 10° C | 47% | 1020 hPa | 0 mm | - | 69 W/m² | - |
| 1778161032 | 8.89° C | 49% | 1020.3 hPa | 0 mm | - | 61 W/m² | - |
| 1778160729 | 8.89° C | 48% | 1020 hPa | 0 mm | - | 53 W/m² | - |
| 1778160427 | 8.33° C | 50% | 1020 hPa | 0 mm | - | 46 W/m² | - |
| 1778160123 | 8.33° C | 50% | 1019.9 hPa | 0 mm | - | 40 W/m² | - |
| 1778159820 | 7.78° C | 52% | 1020 hPa | 0 mm | - | 34 W/m² | - |
| 1778159518 | 7.22° C | 53% | 1020 hPa | 0 mm | - | 29 W/m² | - |
| 1778159214 | 6.67° C | 55% | 1020 hPa | 0 mm | - | 25 W/m² | - |
| 1778158912 | 6.11° C | 57% | 1020 hPa | 0 mm | - | 21 W/m² | - |
| 1778158610 | 5.56° C | 58% | 1019.8 hPa | 0 mm | - | 18 W/m² | - |
| 1778158308 | 5° C | 59% | 1019.9 hPa | 0 mm | - | 14 W/m² | - |
| 1778158003 | 5° C | 60% | 1019.8 hPa | 0 mm | - | 11 W/m² | - |
| 1778157702 | 3.89° C | 61% | 1020 hPa | 0 mm | - | 8 W/m² | - |
| 1778157399 | 4.44° C | 62% | 1019.8 hPa | 0 mm | - | 6 W/m² | - |
| 1778157096 | 3.89° C | 62% | 1019.9 hPa | 0 mm | - | 3 W/m² | - |
| 1778156792 | 3.89° C | 60% | 1019.9 hPa | 0 mm | - | 2 W/m² | - |
| 1778156487 | 3.89° C | 62% | 1019.9 hPa | 0 mm | - | 1 W/m² | - |
| 1778156184 | 3.89° C | 62% | 1019.9 hPa | 0 mm | - | 0 W/m² | - |
| 1778155880 | 3.89° C | 60% | 1019.8 hPa | 0 mm | - | 0 W/m² | - |
| 1778155576 | 4.44° C | 60% | 1019.8 hPa | 0 mm | - | 0 W/m² | - |
| 1778155273 | 5° C | 59% | 1019.7 hPa | 0 mm | - | 0 W/m² | - |
* Rain latest hour (hover to see other rain measurements)
** Current wind speed in m/s (hover to see current wind gust speed)